www.pogodaiklimat.ru
ПОГОДА в Боронган Сити
Время
(UTC), дата
12 24.05
15 24.05
18 24.05
21 24.05
00 25.05
03 25.05
06 25.05
09 25.05
12 25.05
15 25.05
18 25.05
21 25.05
00 26.05
03 26.05
06 26.05
09 26.05
12 26.05
15 26.05
18 26.05
21 26.05
00 27.05
03 27.05
06 27.05
09 27.05
12 27.05
15 27.05
18 27.05
21 27.05
00 28.05
03 28.05
06 28.05
09 28.05
12 28.05
15 28.05
18 28.05
00 29.05
03 29.05
06 29.05
09 29.05
12 29.05
15 29.05
18 29.05
21 29.05
00 30.05
03 30.05
06 30.05
09 30.05
12 30.05
15 30.05
18 30.05
21 30.05
00 31.05
03 31.05
06 31.05
09 31.05
Ветер
(напр.,м/с)
Видим. Явления Облачность Т
(С)
Тd
(С)
f
(%)
Тe
(С)
Тes
(С)
Комфортность P
(гПа)
Po
(гПа)
Тmin
(С)
Tmax
(С)
R
(мм)
R24
(мм)
S
(см)
ЮЗ 1 20 км {туман} 3/3 540 м
[Cu med, cong]
+28.4 +26.3 88 +43 +43 опасность
перегрева
1012.6 1012.2 +33.4
ЮЗ 1 20 км 1/1 540 м
[Cu med, cong]
+27.2 +25.9 93 +41 +41 опасность
перегрева
1013.7 1013.3
З 1 20 км 1/1 540 м
[Cu med, cong]
+26.2 +25.0 93 +37 +37 очень
душно
1012.8 1012.4
З 1 20 км 5/3 540 м
[Cu med, cong Ci fib]
+25.3 +24.5 95 +35 +35 очень
душно
1012.7 1012.3
ЮВ 1 20 км мгла {туман} 9/5 540 м
[Cu med, cong Cs]
+29.7 +27.9 90 +49 +53 опасность
перегрева
1013.8 1013.4 +25.1
В 2 20 км мгла {туман} 8/4 540 м
[Cu med, cong Ci sp]
+31.0 +28.9 89 +54 +65 опасность
перегрева
1013.0 1012.6
В 2 20 км мгла {туман} 6/5 540 м
[Cu med, cong Ci fib]
+31.4 +29.0 87 +54 +62 опасность
перегрева
1010.9 1010.5
ЮВ 1 20 км мгла {туман} 8/5 540 м
[Cu med, cong Ac trans Ci sp]
+30.2 +28.7 92 +52 +52 опасность
перегрева
1010.9 1010.5
ЮВ 2 20 км зарница {гроза, туман} 8/5 480 м
[Cb cap Ac trans]
+29.3 +28.3 94 +49 +49 опасность
перегрева
1012.7 1012.3 +33.8
штиль 0 20 км {гроза} 5/4 540 м
[Cu med, cong Ci fib]
+27.2 +26.2 94 +41 +41 опасность
перегрева
1013.2 1012.8
З 1 20 км {гроза} 4/3 540 м
[Cu med, cong Ci fib]
+26.2 +25.3 95 +38 +38 очень
душно
1012.2 1011.8
штиль 0 20 км 6/3 540 м
[Cu med, cong Ci fib]
+25.3 +24.5 95 +35 +35 очень
душно
1012.2 1011.8
В 1 20 км мгла {туман} 4/4 540 м
[Cu med, cong]
+29.2 +26.1 83 +44 +50 опасность
перегрева
1013.4 1013.0 +25.8
В 2 20 км мгла {туман} 5/4 540 м
[Cu med, cong Ci fib]
+30.8 +26.7 79 +48 +60 опасность
перегрева
1012.8 1012.4
В 3 20 км мгла {туман} 4/3 540 м
[Cu med, cong Ci fib]
+31.4 +27.1 78 +49 +58 опасность
перегрева
1011.1 1010.7
ЮВ 2 18 км мгла {туман} 6/1 540 м
[Cu med, cong Ci fib]
+30.2 +26.1 79 +46 +47 опасность
перегрева
1011.1 1010.7
штиль 0 16 км {туман} 8/3 540 м
[Cu med, cong Ac As Ci fib]
+28.1 +26.4 91 +43 +43 опасность
перегрева
1012.0 1011.6 +33.1
штиль 0 16 км 6/3 540 м
[Cu med, cong Ci fib]
+26.8 +25.2 91 +39 +39 очень
душно
1012.3 1011.9
штиль 0 18 км 4/4 540 м
[Cu med, cong]
+26.1 +24.6 91 +37 +37 очень
душно
1011.7 1011.3
штиль 0 16 км 8/4 540 м
[Cu med, cong Ci fib]
+25.8 +24.7 94 +37 +37 очень
душно
1011.8 1011.4
ЮВ 2 20 км мгла {туман} 4/4 540 м
[Cu med, cong]
+29.8 +25.6 78 +44 +49 опасность
перегрева
1012.9 1012.5 +25.2 4 4.0
ЮВ 2 20 км мгла {туман} 4/4 540 м
[Cu med, cong]
+31.4 +27.7 81 +51 +64 опасность
перегрева
1012.3 1011.9
ЮВ 3 20 км мгла {туман} 4/4 540 м
[Cu med, cong]
+30.8 +27.8 84 +50 +58 опасность
перегрева
1010.5 1010.1 2
ЮВ 3 20 км мгла {туман} 3/3 540 м
[Cu med, cong]
+30.3 +25.9 77 +45 +46 опасность
перегрева
1010.6 1010.2
ЮВ 2 14 км слаб. ливневой дождь {туман} 9/5 450 м
[Cb cap Ac trans]
+29.0 +26.1 84 +44 +44 опасность
перегрева
1012.4 1012.0 +33.3
З 1 18 км {ливн. осадки} 3/3 540 м
[Cu med, cong]
+27.2 +25.5 90 +40 +40 очень
душно
1013.2 1012.8 0.6
СЗ 1 18 км {ливн. осадки} 1/1 540 м
[Cu med, cong]
+26.0 +24.9 94 +37 +37 очень
душно
1012.1 1011.7 0.6
СЗ 1 18 км 4/4 540 м
[Cu med, cong]
+25.4 +24.6 95 +36 +36 очень
душно
1012.1 1011.7
ЮВ 2 20 км мгла {туман} 8/5 480 м
[Cb cap Ci sp]
+30.1 +28.4 91 +51 +55 опасность
перегрева
1013.4 1013.0 +25.2 3 3.0
ЮВ 2 20 км мгла {туман} 8/5 480 м
[Cb cap Ci sp]
+31.4 +28.8 86 +54 +63 опасность
перегрева
1012.7 1012.3
ЮВ 3 20 км мгла {туман} 6/4 480 м
[Cb cap Ci fib]
+31.5 +25.7 71 +46 +53 опасность
перегрева
1011.3 1010.9
ЮВ 1 20 км мгла {туман} 8/3 540 м
[Cu med, cong Ci sp]
+29.9 +26.0 80 +45 +46 опасность
перегрева
1011.0 1010.6
З 1 20 км {туман} 4/3 540 м
[Cu med, cong Ci fib]
+27.5 +26.1 92 +41 +41 опасность
перегрева
1013.2 1012.8 +33.9
З 1 20 км 4/3 540 м
[Cu med, cong Ci fib]
+26.6 +25.6 94 +39 +39 очень
душно
1014.0 1013.6
З 1 20 км 4/3 540 м
[Cu med, cong Ci fib]
+25.7 +25.0 96 +37 +37 очень
душно
1012.5 1012.1
штиль 0 18 км мгла {туман} 8/4 540 м
[Cu med, cong Ci fib]
+30.0 +25.8 78 +45 +50 опасность
перегрева
1013.4 1013.0 +26.1
ЮВ 1 20 км мгла {туман} 4/4 540 м
[Cu med, cong]
+30.5 +26.6 80 +47 +62 опасность
перегрева
1012.8 1012.4
В 2 18 км мгла {туман} 8/4 540 м
[Cu med, cong Ci fib]
+31.0 +27.0 79 +48 +56 опасность
перегрева
1011.3 1010.9
В 2 20 км мгла {туман} 6/4 540 м
[Cu med, cong Ac cuf Ci sp]
+30.2 +26.1 79 +46 +46 опасность
перегрева
1011.2 1010.8
штиль 0 16 км {туман} 8/5 540 м
[Cu med, cong Ci fib]
+28.0 +26.0 89 +42 +42 опасность
перегрева
1013.2 1012.8 +33.0
штиль 0 16 км {ливн. осадки} 8/4 450 м
[Cb cap Ci fib]
+26.8 +25.5 93 +39 +39 очень
душно
1014.0 1013.6 0.2
штиль 0 16 км {ливн. осадки} 6/3 540 м
[Cu med, cong Ci fib]
+26.1 +25.2 95 +38 +38 очень
душно
1013.0 1012.6 5
штиль 0 12 км слаб. ливневой дождь {гроза} 9/4 450 м
[Cb cap Ac As Cs]
+25.7 +24.8 95 +36 +36 очень
душно
1013.4 1013.0 2
В 1 20 км мгла {туман} 8/3 540 м
[Cu med, cong Ac trans Ci sp]
+28.8 +25.4 82 +42 +47 опасность
перегрева
1014.3 1013.9 +25.1 12 12.0
В 2 20 км мгла {туман} 6/1 540 м
[Cu med, cong Ac trans Ci sp]
+29.6 +26.5 83 +45 +59 опасность
перегрева
1013.4 1013.0
В 2 20 км мгла {туман} 3/3 540 м
[Cu med, cong]
+30.8 +26.8 79 +48 +58 опасность
перегрева
1011.6 1011.2
СВ 1 20 км мгла {туман} 3/3 540 м
[Cu med, cong]
+29.9 +25.7 78 +44 +45 опасность
перегрева
1011.9 1011.5
З 1 20 км {туман} 3/3 540 м
[Cu med, cong]
+27.9 +25.8 88 +41 +41 опасность
перегрева
1013.2 1012.8 +33.5
ЮЗ 1 20 км 4/4 540 м
[Cu med, cong]
+27.0 +25.4 91 +39 +39 очень
душно
1013.9 1013.5
СЗ 1 20 км 4/4 540 м
[Cu med, cong]
+26.4 +25.2 93 +38 +38 очень
душно
1013.4 1013.0
СЗ 1 18 км в посл. час ливневой дождь 5/4 540 м
[Cu med, cong Ci fib]
+26.2 +25.2 94 +38 +38 очень
душно
1013.8 1013.4 4
З 1 18 км в посл. час ливневой дождь {туман} 9/5 540 м
[Cu med, cong Ac trans Ci fib]
+28.3 +27.3 94 +45 +48 опасность
перегрева
1014.5 1014.1 +26.0 6 6.0
В 2 20 км мгла {туман} 9/5 540 м
[Cu med, cong Ac trans]
+31.1 +29.3 90 +55 +60 опасность
перегрева
1013.7 1013.3
В 2 18 км в посл. час гроза {ливн. осадки} 9/5 480 м
[Cb cap Ac trans]
+30.4 +29.4 94 +54 +58 опасность
перегрева
1011.7 1011.3 0.4
В 2 20 км мгла {туман} 9/4 540 м
[Cu med, cong Ac trans Cs]
+29.9 +27.3 86 +48 +48 опасность
перегрева
1010.6 1010.2
Местоположение метеостанции Боронган Сити (Филиппины): широта 11.65 долгота 125.43 высота над уровнем моря 3 м.
В архиве по умолчанию представлена погода в Боронган Сити за последнюю неделю. Архивные данные за месяц целиком и за предыдущие месяцы, начиная с января 2011 года, Вы можете получить, выбрав интересующий диапазон дат из раскрывающегося списка и нажав кнопку "Найти!".
*Определитесь, кто Вы:
Внимание! Время в таблицах - всемирное. Для получения местного времени необходимо прибавить поправку, которая равна 8 ч.
Смотрите также архив погоды в соседних городах и на ближайших метеорологических станциях:
Партнеры нашего сайта:      
Пояснения к столбцам:
  • Ветер - указаны скорость ветра в м/с - средняя за 10 мин, порывы в срок и между сроками (в фигурных скобках) и направление, откуда дует ветер: С - северный,
  • СВ - северо-восточный, В - восточный, ЮВ - юго-восточный, Ю - южный, ЮЗ - юго-западный, З - западный, СЗ - северо-западный.
  • Видимость - горизонтальная дальность видимости в метрах или километрах. При видимости от 1 до 10 км при отсутствии осадков обычно наблюдается дымка, при ухудшении видимости до 1 км и менее - туман. В сухую погоду видимость может ухудшаться дымом, пылью или мглою.
  • Явления - указаны атмосферные явления, наблюдавшиеся в срок или в последний час перед сроком; фигурными скобками обозначены явления, наблюдавшиеся между сроками (за 1-3 часа до срока); квадратными скобками обозначены град или гололедные отложения с указанием их диаметра в мм.
  • Облачность - указаны через наклонную черту общая и нижняя облачность в баллах и высота нижней границы облаков в метрах; квадратными скобками обозначены формы облаков: Ci - перистые, Cs - перисто-слоистые, Cc - перисто-кучевые, Ac - высококучевые, As - высокослоистые, Sc - слоисто-кучевые, Ns - слоисто-дождевые, Cu - кучевые, Cb - кучево-дождевые. Подробнее классификацию облаков см. в Атласе облаков (PDF).
  • T - Температура воздуха - температура, измеренная на высоте 2 м над землей.
  • Td - Температура точки росы - температура, при понижении до которой содержащийся в воздухе водяной пар достигнет насыщения.
  • f - Относительная влажность воздуха - влажноcть воздуха, измеренная на высоте 2 м над землей.
  • Te - Эффективная температура - температура, которую ощущает одетый по сезону человек в тени. Характеристика душности погоды. При расчете учитывается влияние влажности воздуха и скорости ветра на теплоощущения человека.
  • Tes - Эффективная температура на солнце - температура, которую ощущает человек, с поправкой на солнечный нагрев. Характеристика знойности погоды. Зависит от высоты солнца над горизонтом, облачности и скорости ветра. Ночью, в пасмурную погоду, а также при ветре 12 м/с и более поправка равна нулю.
  • P - Атмосферное давление - приведенное к уровню моря атмосферное давление.
  • Po - Атмосферное давление - измеренное на уровне метеостанции атмосферное давление.
  • Tmin - Минимальная температура - минимум температуры воздуха на высоте 2 м над землей.
  • Tmax - Максимальная температура - максимум температуры воздуха на высоте 2 м над землей.
  • R - Количество осадков - Количество выпавших осадков за период времени, мм. При наведении курсора мыши на число - период времени, за который выпало указанное количество осадков.
  • R24 - Количество осадков - Количество выпавших осадков за 24 часа, мм.
  • S - Снежный покров - Высота снежного покрова, см. При наведении курсора мыши на число - состояние снежного покрова и степень покрытия местности в баллах.